This demonstration page uses our WeatherBlox Daily Observations layout. Learn more.

Left ArrowRight Arrow

47.50024, -111.30081

Hourly Observations for May 18, 2015

Temp ( °F °C ) Dew Point ( °F °C ) Humidity (%) Winds ( mph kmh ) Pressure ( in mb ) Visibility ( mi km ) Precip ( " mm )
12:53 am 00:53 Cloudy 37 2.8 35 1.7 93 93 SSW 6 9 30.45 1031 10 16 0.00 0.00
1:53 am 01:53 Cloudy 38 3.3 35 1.7 89 89 S 3 6 30.45 1031 10 16 0.00 0.00
2:53 am 02:53 Mostly Cloudy 36 2.2 33 0.6 89 89 ENE 3 6 30.44 1031 10 16 0.00 0.00
3:53 am 03:53 Mostly Clear 33 0.6 32 0 96 96 ENE 6 9 30.45 1031 10 16 0.00 0.00
4:53 am 04:53 Clear 33 0.6 31 -0.6 92 92 E 6 9 30.45 1031 10 16 0.00 0.00
5:53 am 05:53 Sunny 32 0 30 -1.1 92 92 E 6 9 30.44 1031 10 16 0.00 0.00
6:53 am 06:53 Sunny 34 1.1 32 0 92 92 ENE 7 11 30.43 1031 10 16 0.00 0.00
7:53 am 07:53 Mostly Sunny 38 3.3 34 1.1 86 86 E 10 17 30.42 1030 10 16 0.00 0.00
8:53 am 08:53 Partly Cloudy 42 5.6 33 0.6 71 71 E 9 15 30.42 1030 10 16 0.00 0.00
9:53 am 09:53 Partly Cloudy 43 6.1 33 0.6 68 68 ENE 9 15 30.42 1030 10 16 0.00 0.00
10:53 am 10:53 Partly Cloudy 47 8.3 34 1.1 61 61 NE 6 9 30.40 1030 10 16 0.00 0.00
11:53 am 11:53 Mostly Cloudy 47 8.3 34 1.1 61 61 ENE 6 9 30.40 1029 10 16 0.00 0.00
12:53 pm 12:53 Cloudy 49 9.4 35 1.7 59 59 NE 9 15 30.39 1029 10 16 0.00 0.00
1:53 pm 13:53 Cloudy 49 9.4 34 1.1 56 56 VRB 6 9 30.36 1028 10 16 0.00 0.00
2:53 pm 14:53 Cloudy 50 10 34 1.1 54 54 ESE 5 7 30.36 1028 10 16 0.00 0.00
3:53 pm 15:53 Cloudy 51 10.6 35 1.7 54 54 E 12 19 30.36 1028 10 16 0.00 0.00
4:53 pm 16:53 Cloudy 51 10.6 35 1.7 54 54 ENE 7 11 30.34 1027 10 16 0.00 0.00
5:53 pm 17:53 Cloudy 52 11.1 35 1.7 53 53 NE 10 17 30.33 1027 10 16 0.00 0.00
6:53 pm 18:53 Cloudy 51 10.6 35 1.7 54 54 ENE 7 11 30.32 1027 10 16 0.00 0.00
7:53 pm 19:53 Cloudy 50 10 35 1.7 57 57 E 13 20 30.30 1026 10 16 0.00 0.00
8:53 pm 20:53 Cloudy 48 8.9 34 1.1 58 58 E 9 15 30.30 1026 10 16 0.00 0.00
9:53 pm 21:53 Cloudy 48 8.9 33 0.6 56 56 ENE 13 20 30.30 1026 10 16 0.00 0.00
10:53 pm 22:53 Cloudy 46 7.8 35 1.7 66 66 E 8 13 30.29 1026 10 16 0.00 0.00
11:53 pm 23:53 Cloudy 45 7.2 36 2.2 71 71 E 5 7 30.30 1026 10 16 0.00 0.00

Powered by AerisWeather